Home   Weather   Pittsburgh   Past weeks

Flag for USA Past Weather in Pittsburgh, Pennsylvania, USA — Yesterday and Last 2 Weeks

Now
34 °F

Overcast.


Feels Like: 27 °F
Forecast: 32 / 48 °F
Wind: 9 mph from South

Location: Allegheny County Airport

Current Time: Feb 27, 2017 at 2:20:21 am

Latest Report: Feb 27, 2017 at 1:53 am


Visibility: 10 mi

Pressure: 30.26 "Hg

Humidity: 37%

Dew Point: 10 °F

Location of PittsburghLocation

Past Weather in Pittsburgh — Graph

°F

Pittsburgh Temperature Yesterday

Maximum temperature yesterday: 39 °F (at 3:53 pm)
Minimum temperature yesterday: 26 °F (at 4:53 am)
Average temperature yesterday: 30 °F

High & Low Weather Summary for the Past Weeks

 TemperatureHumidityPressure
High76 °F (Feb 24, 2:53 pm)97% (Feb 20, 7:53 am)30.31 "Hg (Feb 20, 7:53 am)
Low22 °F (Feb 16, 11:53 pm)26% (Feb 18, 3:53 pm)29.52 "Hg (Feb 15, 7:16 am)
Average45 °F61%29.89 "Hg
* Reported Feb 12 12:53 am — Feb 27 12:53 am, Pittsburgh, Weather by CustomWeather, © 2017

Note: Actual official high and low records may vary slightly from our data, if they occured in-between our weather recording intervals... More about our weather records

Advertising

Pittsburgh Weather History for the Previous 24 Hours

Scroll right to see more
 ConditionsComfort  
Time TempWeatherWind HumidityBarometerVisibility
12:53 am
Mon, Feb 27
33 °FClear.9 mph38%30.25 "Hg10 mi
11:53 pm
Sun, Feb 26
33 °FClear.8 mph40%30.24 "Hg10 mi
10:53 pm33 °FClear.8 mph40%30.25 "Hg10 mi
9:53 pm33 °FClear.6 mph40%30.24 "Hg10 mi
8:53 pm34 °FClear.7 mph38%30.24 "Hg10 mi
7:53 pm35 °FClear.7 mph38%30.22 "Hg10 mi
6:53 pm36 °FClear.9 mph37%30.21 "Hg10 mi
5:53 pm37 °FSunny.12 mph36%30.19 "Hg10 mi
4:53 pm39 °FSunny.9 mph33%30.17 "Hg10 mi
3:53 pm39 °FSunny.9 mph36%30.17 "Hg10 mi
2:53 pm37 °FSunny.13 mph41%30.17 "Hg10 mi
1:53 pm36 °FPassing clouds.13 mph46%30.18 "Hg10 mi
12:53 pm34 °FOvercast.13 mph50%30.19 "Hg10 mi
11:53 am31 °FMore clouds than sun.12 mph64%30.18 "Hg10 mi
11:36 am30 °FLight snow. Cloudy.10 mph69%30.14 "Hg7 mi
10:58 am29 °FLight snow. Mostly cloudy.9 mph72%30.13 "Hg2 mi
10:35 am28 °FLight snow. Overcast.9 mph72%30.13 "Hg1 mi
9:53 am27 °FLight snow. Mostly cloudy.9 mph72%30.18 "Hg3 mi
9:34 am27 °FLight snow. Cloudy.7 mph72%30.11 "Hg2 mi
9:21 am27 °FLight snow. More clouds than sun.7 mph72%30.10 "Hg3 mi
9:00 am27 °FLight snow. Mostly cloudy.3 mph75%30.10 "Hg2 mi
8:32 am27 °FLight snow. Mostly cloudy.6 mph69%30.09 "Hg2 mi
8:04 am27 °FLight snow. Overcast.9 mph66%30.08 "Hg6 mi
6:53 am27 °FLight snow. Overcast.9 mph66%30.09 "Hg8 mi
5:53 am26 °FLight snow. Overcast.7 mph69%30.07 "Hg9 mi
4:53 am26 °FLight snow. Overcast.10 mph69%30.05 "Hg6 mi
3:53 am27 °FLight snow. Overcast.16 mph61%30.03 "Hg8 mi
3:08 am27 °FLight snow. Mostly cloudy.12 mph58%29.98 "Hg9 mi
2:53 am27 °FLight snow. Mostly cloudy.14 mph61%30.02 "Hg9 mi
2:36 am27 °FLight snow. Overcast.10 mph61%29.98 "Hg9 mi
Weather by CustomWeather, © 2017

See weather overviewHow to use our weather pages